Location: Balaclava NSW 2575, Australia
(34.4510°S, 150.4953°E)
Time: 21:09:38
(UTC+10:00)

Explorer 7 - Visible Passes

Search period start: 13 June 2021 00:00
Search period end: 23 June 2021 00:00
Orbit: 484 x 677 km, 50.3° (Epoch: 12 June)

Date Brightness Start Highest point End Pass type
(mag) Time Alt. Az. Time Alt. Az. Time Alt. Az.
13 Jun 8.0 18:34:29 10° WSW 18:38:51 47° NW 18:43:23 10° NNE visible
14 Jun 9.1 18:39:12 10° WSW 18:43:05 28° NW 18:47:06 10° N visible
15 Jun 10.0 18:44:25 10° W 18:47:16 16° NW 18:50:12 10° NNW visible
18 Jun 9.8 17:16:23 10° WSW 17:19:56 24° NW 17:23:36 10° N visible
19 Jun 10.4 17:21:52 10° W 17:24:07 14° NW 17:26:24 10° NNW visible
